Home > Weather > Apolda > Past weeks

Flag for Germany Past Weather in Apolda, Thuringia, Germany — Yesterday and Last 2 Weeks

Now
91 °F

Sunny.


Feels Like: 90 °F
Forecast: 64 / 76 °F
Wind: 13 mph from Southwest

Location: Erfurt-Bindersleben

Current Time: Aug 28, 2016 at 4:17:06 PM

Latest Report: Aug 28, 2016 at 3:20 PM


Visibility: 10 mi

Pressure: 29.92 "Hg

Humidity: 32%

Dew Point: 57 °F

Location of ApoldaLocation

Past Weather in Apolda — Graph

°F

Apolda Temperature Yesterday

Maximum temperature yesterday: 91 °F (at 3:20 PM)
Minimum temperature yesterday: 63 °F (at 3:20 AM)
Average temperature yesterday: 77 °F

High & Low Weather Summary for the Past Weeks

 TemperatureHumidityPressure
High93 °F (Aug 26, 4:20 PM)100% (Aug 14, 5:20 AM)30.36 "Hg (Aug 14, 5:20 AM)
Low43 °F (Aug 18, 6:20 AM)17% (Aug 25, 2:20 PM)29.80 "Hg (Aug 18, 4:50 PM)
Average68 °F61%30.10 "Hg
* Reported Aug 13 3:20 PM — Aug 28 3:20 PM, Apolda, Weather by CustomWeather, © 2016

Note: Actual official high and low records may vary slightly from our data, if they occured in-between our weather recording intervals... More about our weather records

Advertising

Apolda Weather History for the Previous 24 Hours

Scroll right to see more
 ConditionsComfort  
Time TempWeatherWind HumidityBarometerVisibility
3:20 PM
Sun, Aug 28
91 °FSunny.13 mph32%29.92 "Hg10 mi
2:50 PM91 °FPassing clouds.10 mph34%29.95 "HgN/A
2:20 PM88 °FPassing clouds.10 mph38%29.95 "HgN/A
1:50 PM88 °FPassing clouds.12 mph38%29.95 "HgN/A
1:20 PM86 °FSunny.18 mph40%29.98 "Hg10 mi
12:50 PM88 °FSunny.17 mph38%29.98 "Hg10 mi
12:20 PM91 °FPassing clouds.12 mph34%29.95 "HgN/A
11:50 AM91 °FPassing clouds.7 mph30%29.98 "HgN/A
11:20 AM90 °FSunny.6 mph31%29.98 "Hg10 mi
10:50 AM86 °FPassing clouds.7 mph35%29.98 "HgN/A
10:20 AM84 °FPassing clouds.7 mph40%29.98 "HgN/A
9:50 AM82 °FPassing clouds.6 mph40%29.98 "HgN/A
9:20 AM79 °FSunny.7 mph45%29.98 "Hg10 mi
8:50 AM77 °FSunny.8 mph47%29.98 "Hg10 mi
8:20 AM75 °FSunny.7 mph50%29.98 "Hg10 mi
7:50 AM72 °FPassing clouds.5 mph53%29.98 "HgN/A
7:20 AM72 °FPassing clouds.3 mph53%29.98 "HgN/A
6:50 AM70 °FClear.9 mph57%29.98 "Hg10 mi
6:20 AM70 °FClear.8 mph57%29.98 "Hg10 mi
5:50 AM68 °FClear.8 mph60%29.98 "Hg10 mi
5:20 AM70 °FClear.9 mph57%29.98 "Hg10 mi
4:50 AM70 °FClear.9 mph57%29.98 "Hg10 mi
4:20 AM70 °FClear.10 mph57%30.01 "Hg10 mi
3:50 AM70 °FClear.9 mph57%30.01 "Hg10 mi
3:20 AM72 °FClear.10 mph53%30.01 "Hg10 mi
2:50 AM73 °FClear.9 mph50%30.01 "Hg10 mi
2:20 AM73 °FClear.9 mph50%30.01 "Hg10 mi
1:50 AM73 °FClear.8 mph53%30.01 "Hg10 mi
1:20 AM72 °FClear.8 mph57%30.01 "Hg10 mi
12:50 AM73 °FClear.6 mph53%30.04 "Hg10 mi
12:20 AM75 °FClear.5 mph50%30.04 "Hg10 mi
11:50 PM
Sat, Aug 27
75 °FClear.5 mph50%30.04 "Hg10 mi
11:20 PM75 °FClear.6 mph50%30.04 "Hg10 mi
10:50 PM75 °FPassing clouds.6 mph50%30.04 "HgN/A
10:20 PM79 °FClear.5 mph45%30.04 "Hg10 mi
9:50 PM77 °FClear.6 mph47%30.04 "Hg10 mi
9:20 PM81 °FClear.6 mph39%30.07 "Hg10 mi
8:50 PM82 °FPassing clouds.6 mph40%30.07 "HgN/A
8:20 PM84 °FPassing clouds.7 mph37%30.04 "HgN/A
7:50 PM86 °FSunny.6 mph35%30.04 "Hg10 mi
7:20 PM88 °FSunny.7 mph33%30.04 "Hg10 mi
6:50 PM90 °FPassing clouds.6 mph27%30.04 "HgN/A
6:20 PM90 °FPassing clouds.9 mph29%30.04 "HgN/A
5:50 PM90 °FPassing clouds.8 mph29%30.07 "HgN/A
5:20 PM90 °FPassing clouds.8 mph29%30.07 "HgN/A
4:50 PM91 °FSunny.5 mph28%30.07 "Hg10 mi
4:20 PM91 °FPassing clouds.5 mph28%30.07 "HgN/A
Weather by CustomWeather, © 2016

See weather overviewHow to use our weather pages